EW4908 Weather Reports


time (UTC)temp
C
wind
direction
speed
KPH
gust
KPH
rain 1hr
cm
rain 24hr
cm
rain mn
cm
humidity
%
barometer
mb
20260507221511 21 287 14.5 19.3 0.00 0.00 0.00 45 1019.9
20260507220059 22 271 8.0 19.3 0.00 0.00 0.00 43 1019.9
20260507214601 21 279 9.7 19.3 0.00 0.00 0.00 46 1020.2
20260507213056 21 257 3.2 16.1 0.00 0.00 0.00 49 1020.5
20260507211553 21 238 8.0 22.5 0.00 0.00 0.00 50 1020.8
20260507210020 20 248 9.7 17.7 0.00 0.00 0.00 49 1020.9
20260507204519 20 281 9.7 19.3 0.00 0.00 0.00 47 1021.0
20260507203013 21 289 9.7 30.6 0.00 0.00 0.00 50 1021.1
20260507201515 20 282 11.3 29.0 0.00 0.00 0.00 52 1020.9
20260507200009 20 257 14.5 24.1 0.00 0.00 0.00 50 1021.0
20260507194507 20 250 11.3 19.3 0.00 0.00 0.00 55 1021.0
20260507193059 19 290 11.3 25.7 0.00 0.00 0.00 53 1021.1
20260507191530 18 360 12.9 32.2 0.00 0.00 0.00 55 1021.0
20260507190024 18 284 16.1 30.6 0.00 0.00 0.00 56 1021.0
20260507184520 18 298 17.7 29.0 0.00 0.00 0.00 57 1021.2
20260507183029 18 289 9.7 25.7 0.00 0.00 0.00 61 1021.3
20260507181511 18 261 14.5 24.1 0.00 0.00 0.00 60 1021.3
20260507180042 17 254 14.5 24.1 0.00 0.00 0.00 61 1021.2
20260507174536 17 231 9.7 22.5 0.00 0.00 0.00 64 1021.2
20260507173103 17 260 16.1 22.5 0.00 0.00 0.00 62 1021.3
20260507171612 16 252 16.1 24.1 0.00 0.00 0.00 66 1021.3
20260507170026 16 211 12.9 22.5 0.00 0.00 0.00 66 1021.3
20260507164521 16 246 11.3 24.1 0.00 0.00 0.00 69 1021.4
20260507163047 15 263 12.9 20.9 0.00 0.00 0.00 68 1021.4
20260507161545 15 213 12.9 20.9 0.00 0.00 0.00 71 1021.4
20260507160006 15 252 11.3 20.9 0.00 0.00 0.00 71 1021.8
20260507154502 14 224 11.3 19.3 0.00 0.00 0.00 74 1021.7
20260507153057 13 254 11.3 20.9 0.00 0.00 0.00 77 1021.7
20260507151554 13 258 12.9 22.5 0.00 0.00 0.00 79 1021.5
20260507150143 12 224 16.1 22.5 0.00 0.00 0.00 80 1021.4
20260507144524 12 248 11.3 22.5 0.00 0.00 0.00 81 1021.3
20260507143018 11 360 12.9 20.9 0.00 0.00 0.00 82 1021.2
20260507141511 11 261 17.7 25.7 0.00 0.00 0.00 82 1020.9
20260507140016 10 300 17.7 24.1 0.00 0.00 0.00 84 1020.8
20260507140014 10 251 17.7 24.1 0.00 0.00 0.00 84 1020.8
20260507134556 10 261 17.7 25.7 0.00 0.00 0.00 86 1020.8
20260507133056 9 278 16.1 19.3 0.00 0.00 0.00 87 1020.9
20260507131525 8 286 12.9 17.7 0.00 0.00 0.00 89 1020.8
20260507130017 8 242 11.3 16.1 0.00 0.00 0.00 89 1020.6
20260507124550 8 360 12.9 20.9 0.00 0.00 0.00 88 1020.5
20260507123043 8 252 16.1 22.5 0.00 0.00 0.00 87 1019.9
20260507121509 8 216 17.7 20.9 0.00 0.00 0.00 86 1020.0
20260507120007 8 247 17.7 22.5 0.00 0.00 0.00 85 1019.9
20260507113030 8 269 12.9 17.7 0.00 0.00 0.00 85 1020.0
20260507111559 9 257 11.3 17.7 0.00 0.00 0.00 83 1020.0
20260507110116 9 265 9.7 19.3 0.00 0.00 0.00 82 1019.9
20260507104525 10 249 12.9 22.5 0.00 0.00 0.00 81 1019.6
20260507103023 10 258 12.9 17.7 0.00 0.00 0.00 81 1019.6
20260507101519 10 257 14.5 22.5 0.00 0.00 0.00 78 1019.6
20260507100013 10 250 16.1 24.1 0.00 0.00 0.00 77 1019.4
20260507094510 10 265 11.3 19.3 0.00 0.00 0.00 74 1019.6
20260507093008 11 281 16.1 20.9 0.00 0.00 0.00 70 1019.3
20260507091640 11 257 12.9 24.1 0.00 0.00 0.00 67 1019.3
20260507090106 11 254 19.3 25.7 0.00 0.00 0.00 66 1019.1
20260507084558 11 263 14.5 17.7 0.00 0.00 0.00 66 1019.2
20260507083056 11 360 12.9 20.9 0.00 0.00 0.00 65 1019.3
20260507081524 11 360 16.1 22.5 0.00 0.00 0.00 65 1019.0
20260507080027 12 282 16.1 24.1 0.00 0.00 0.00 63 1018.8
20260507074553 12 281 16.1 22.5 0.00 0.00 0.00 63 1018.8
20260507073050 12 301 17.7 24.1 0.00 0.00 0.00 62 1018.6
20260507071544 12 267 16.1 20.9 0.00 0.00 0.00 62 1018.6
20260507070057 13 275 12.9 22.5 0.00 0.00 0.00 59 1018.5
20260507064540 14 261 17.7 32.2 0.00 0.00 0.00 58 1018.3
20260507063040 13 360 17.7 30.6 0.00 0.00 0.00 60 1018.4
20260507061513 13 282 16.1 24.1 0.00 0.00 0.00 61 1018.3
20260507060009 12 259 11.3 16.1 0.00 0.00 0.00 61 1018.2
20260507054546 12 360 12.9 17.7 0.00 0.00 0.00 60 1018.1
20260507053048 13 260 8.0 14.5 0.00 0.00 0.00 54 1018.0
20260507051509 14 270 12.9 22.5 0.00 0.00 0.00 51 1017.8
20260507050006 14 286 16.1 22.5 0.00 0.00 0.00 50 1017.6
20260507044536 14 287 12.9 17.7 0.00 0.00 0.00 50 1017.6
20260507043035 15 273 9.7 14.5 0.00 0.00 0.00 47 1017.5
20260507041533 16 265 12.9 20.9 0.00 0.00 0.00 43 1017.2
20260507040033 17 283 14.5 25.7 0.00 0.00 0.00 40 1017.1
20260507034550 17 295 16.1 30.6 0.00 0.00 0.00 37 1016.9
20260507033034 18 292 17.7 29.0 0.00 0.00 0.00 35 1016.7
20260507031559 19 290 16.1 25.7 0.00 0.00 0.00 34 1016.6
20260507030059 20 292 14.5 22.5 0.00 0.00 0.00 34 1016.4
20260507024554 20 279 17.7 29.0 0.00 0.00 0.00 36 1016.3
20260507023044 21 286 17.7 25.7 0.00 0.00 0.00 38 1016.2
20260507021548 21 360 20.9 35.4 0.00 0.00 0.00 36 1016.3
20260507020014 22 297 24.1 37.0 0.00 0.00 0.00 33 1016.3
20260507014521 22 285 27.4 38.6 0.00 0.00 0.00 33 1016.2
20260507013046 22 279 19.3 33.8 0.00 0.00 0.00 45 1016.1
20260507011548 21 265 14.5 22.5 0.00 0.00 0.00 49 1016.0
20260507010059 22 234 16.1 22.5 0.00 0.00 0.00 47 1016.2
20260507004543 22 245 14.5 24.1 0.00 0.00 0.00 45 1016.2
20260507003041 22 237 14.5 22.5 0.00 0.00 0.00 46 1016.3
20260507001546 22 281 14.5 22.5 0.00 0.00 0.00 46 1016.3
20260507000039 23 260 17.7 25.7 0.00 0.00 0.00 46 1016.2
20260506234538 23 260 19.3 30.6 0.00 0.00 0.00 45 1016.2
20260506233038 24 233 22.5 37.0 0.00 0.00 0.00 45 1016.3
20260506233004 24 360 20.9 37.0 0.00 0.00 0.00 44 1016.3
20260506231538 24 242 20.9 33.8 0.00 0.00 0.00 43 1016.4
20260506230032 25 267 17.7 32.2 0.00 0.00 0.00 45 1016.4
20260506224531 25 290 16.1 25.7 0.00 0.00 0.00 45 1016.5
20260506223026 24 275 14.5 24.1 0.00 0.00 0.00 47 1016.7